SCP
0 0 0 0 0 0 0 0 0 0 0 0 0 0 0 0 0 0 0 0 0 0
0 0 0 0 0 0 0 0 0 0 0 0 0 0 0 0 0 0 0 0 0 0
0 0 0 0 0 0 0 0 0 0 0 0 0 0 0 0 0 0 0 0 0 -0
0 0 0 0 0 0 0 0 0 0 0 0 0 0 0 0 0 0 0 0 0 0
0 0 0 0 0 0 0 0 0 0 0 0 0 0 0 0 0 0 0 0 0 0
0 0 0 0 0 0 0 0 0 0 0 0 0 0 0 0 0 0 -0 -0 -0 -0
0 0 0 0 0 0 0 0 0 0 0 0 0 0 0 -0 -0 -0 -0 -0 -0 -0
0 0 0 0 0 0 0 0 0 0 0 0 0 -0 -0 -0 -0 -0 -0 -0 -0 -0
0 0 0 0 0 0 0 0 0 0 0 0 0 0 -0 -0 -0 -0 -0 -0 -0 -0
0 0 0 0 0 0 0 0 0 0 0 0 -0 0 0 -0 -0 -0 -0 -0 -0 -0
0 0 0 0 0 0 0 0 0 0 0 0 0 0 0 0 0 0 0 0 0 0
0 0 0 0 0 0 0 0 0 0 0 0 0 0 0 0 0 0 0 0 0 0
0 0 0 0 0 0 0 0 0 0 0 0 0 0 0 0 0 0 0 0 0 0
0 0 0 0 0 0 0 0 0 0 0 0 0 0 0 0 0 0 0 0 0 0
Wind_Speed_500mb
14 14 12 13 13 13 14 14 17 21 24 25 25 26 27 27 29 30 30 31 31 30
15 15 13 11 12 12 14 14 16 20 23 24 24 24 24 24 24 25 26 27 30 30
12 12 11 12 9 13 15 15 15 17 21 22 22 22 23 24 26 28 29 30 31 32
9 9 9 9 8 13 14 16 15 15 18 19 20 22 25 26 28 29 31 33 35 37
5 5 8 8 8 13 13 14 14 17 18 20 21 21 24 26 28 31 33 36 38 39
4 0 4 7 8 11 13 14 16 15 17 19 20 23 28 28 32 35 37 40 43 45
8 5 3 5 7 9 10 12 12 13 15 17 19 23 25 28 33 36 39 43 45 46
11 8 1 4 2 4 5 5 6 9 11 13 17 20 22 27 32 36 41 42 47 49
12 6 6 5 4 6 4 1 5 6 8 11 15 19 24 29 33 36 40 45 50 55
11 6 8 11 8 11 8 8 11 13 15 14 16 20 26 30 35 38 40 45 53 57
12 9 11 10 10 12 12 12 15 16 17 20 22 25 30 33 37 40 42 46 54 59
14 10 10 10 11 15 20 18 20 24 24 26 28 31 35 39 42 45 47 48 54 54
14 15 15 15 19 19 21 24 26 31 33 33 35 37 40 40 45 50 46 48 45 50
14 15 18 23 25 25 28 30 33 37 39 42 46 44 42 39 45 49 40 42 48 45
Wind_Direction_500mb
128 123 129 124 113 115 115 98 78 62 55 52 47 41 35 28 23 20 17 13 11 6
118 110 108 109 109 107 112 100 81 60 54 51 45 41 34 27 21 17 15 13 7 4
107 93 91 84 97 121 116 100 79 59 54 51 45 38 32 23 20 17 12 13 8 3
122 95 64 53 96 118 112 93 81 66 61 58 48 39 33 25 20 16 11 6 3 359
121 98 55 60 99 119 109 99 86 77 73 66 58 48 42 30 20 14 11 5 359 355
221 276 63 61 87 116 119 102 82 73 69 67 57 44 36 27 23 15 10 6 359 354
227 228 3 42 89 126 120 97 80 60 54 53 47 37 30 23 20 14 9 3 357 352
226 248 262 352 22 140 137 92 62 44 32 27 25 20 10 10 7 2 1 356 351 347
236 244 272 250 251 243 216 256 310 318 340 343 350 349 353 349 349 349 346 345 344 343
249 246 248 251 237 243 249 274 283 294 296 312 323 328 327 330 332 333 336 336 339 337
239 251 248 236 246 243 253 270 279 278 284 298 306 310 310 312 316 321 328 332 336 332
234 242 261 265 250 241 254 274 286 286 283 288 302 307 307 300 307 312 319 325 330 326
252 268 275 267 254 260 275 285 289 285 289 294 301 310 303 297 305 310 308 315 317 321
257 269 269 265 272 281 284 289 292 295 297 293 294 301 301 294 302 306 299 309 315 315
Wind_Speed_850mb
14 14 12 13 13 13 14 14 17 21 24 25 25 26 27 27 29 30 30 31 31 30
15 15 13 11 12 12 14 14 16 20 23 24 24 24 24 24 24 25 26 27 30 30
12 12 11 12 9 13 15 15 15 17 21 22 22 22 23 24 26 28 29 30 31 32
9 9 9 9 8 13 14 16 15 15 18 19 20 22 25 26 28 29 31 33 35 37
5 5 8 8 8 13 13 14 14 17 18 20 21 21 24 26 28 31 33 36 38 39
4 0 4 7 8 11 13 14 16 15 17 19 20 23 28 28 32 35 37 40 43 45
8 5 3 5 7 9 10 12 12 13 15 17 19 23 25 28 33 36 39 43 45 46
11 8 1 4 2 4 5 5 6 9 11 13 17 20 22 27 32 36 41 42 47 49
12 6 6 5 4 6 4 1 5 6 8 11 15 19 24 29 33 36 40 45 50 55
11 6 8 11 8 11 8 8 11 13 15 14 16 20 26 30 35 38 40 45 53 57
12 9 11 10 10 12 12 12 15 16 17 20 22 25 30 33 37 40 42 46 54 59
14 10 10 10 11 15 20 18 20 24 24 26 28 31 35 39 42 45 47 48 54 54
14 15 15 15 19 19 21 24 26 31 33 33 35 37 40 40 45 50 46 48 45 50
14 15 18 23 25 25 28 30 33 37 39 42 46 44 42 39 45 49 40 42 48 45
Wind_Direction_850mb
128 123 129 124 113 115 115 98 78 62 55 52 47 41 35 28 23 20 17 13 11 6
118 110 108 109 109 107 112 100 81 60 54 51 45 41 34 27 21 17 15 13 7 4
107 93 91 84 97 121 116 100 79 59 54 51 45 38 32 23 20 17 12 13 8 3
122 95 64 53 96 118 112 93 81 66 61 58 48 39 33 25 20 16 11 6 3 359
121 98 55 60 99 119 109 99 86 77 73 66 58 48 42 30 20 14 11 5 359 355
221 276 63 61 87 116 119 102 82 73 69 67 57 44 36 27 23 15 10 6 359 354
227 228 3 42 89 126 120 97 80 60 54 53 47 37 30 23 20 14 9 3 357 352
226 248 262 352 22 140 137 92 62 44 32 27 25 20 10 10 7 2 1 356 351 347
236 244 272 250 251 243 216 256 310 318 340 343 350 349 353 349 349 349 346 345 344 343
249 246 248 251 237 243 249 274 283 294 296 312 323 328 327 330 332 333 336 336 339 337
239 251 248 236 246 243 253 270 279 278 284 298 306 310 310 312 316 321 328 332 336 332
234 242 261 265 250 241 254 274 286 286 283 288 302 307 307 300 307 312 319 325 330 326
252 268 275 267 254 260 275 285 289 285 289 294 301 310 303 297 305 310 308 315 317 321
257 269 269 265 272 281 284 289 292 295 297 293 294 301 301 294 302 306 299 309 315 315